Dauntless Aviation
Airports Europe France
LFIY

St Jean d'Angély Airport

Moulins, FRANCE

Airport Info
Suggest Updated Information for this Airport

Location

Latitude / Longitude: 45°57'59"N / 0°31'31"W
  45°57.984'N / 0°31.518'W
  45.9664 / -0.5253

Runway Information

Runway 10 /28

Dimensions: 2789 x 164 ft.
Surface: U
 
Runway 10
Runway 28
Latitude: 45.966636 45.965728
Longitude: -0.528086 -0.518369
Elevation: 243 ft. 243 ft.
Runway true heading: 95.7 275.7
 

Instrument Procedures

IAPs (Instrument Approach Procedures)

  Visual Approach Chart
Satellite photo at:
Airport distance calculator
From:
Weather Reports

METAR

LFBG
20.0nm SE
LFBG 260900Z AUTO VRB02KT 9999 BKN008 OVC014 18/14 Q1022 BECMG BKN016
LFBH
31.0nm W
LFBH 260900Z AUTO 01007KT 9999 FEW008 17/14 Q1022 NOSIG
LFBU
34.5nm E
LFBU 260900Z AUTO 00000KT 9999 OVC008 17/15 Q1022 TEMPO 3000 BR BECMG BKN020

TAF

LFBG
20.0nm SE
TAF LFBG 260800Z 2609/2709 VRB03KT 9999 BKN008 BECMG 2610/2612 BKN016 TEMPO 2704/2707 3000 BR PROB30 TEMPO 2704/2707 0800 FG
LFBH
31.0nm W
TAF AMD LFBH 260610Z 2606/2706 36006KT 9999 SCT020 PROB40 2606/2608 4000 BR BKN005 BECMG 2609/2611 OVC030 BECMG 2615/2617 CAVOK BECMG 2703/2705 12005KT
LFBU
34.5nm E
TAF AMD LFBU 260611Z 2606/2706 22003KT 9999 BKN010 PROB40 2606/2610 3000 BR BKN004 BECMG 2610/2612 VRB03KT BKN020 PROB40 TEMPO 2612/2616 -SHRA BECMG 2618/2620 12005KT CAVOK PROB30 TEMPO 2700/2706 MIFG
Safelog

 

Dauntless Aviation

© 2007-2017 Dauntless Aviation, all rights reserved
Information provided via PilotNav comes from a variety of official and unofficial data sources. As errors are possible, do not use PilotNav for primary flight planning purposes. Verify any information that you receive via PilotNav with current and canonical charts and other official documents. The material in this database is subject to database copyrights held by Dauntless Aviation and may not be copied without the express permission of Dauntless Aviation - licenses for use of part of all of this data are available for purchase; enquire via the Dauntless Aviation helpdesk. A number of mechanisms and markers exist in the database to protect against and identify infringement / copyright. Automated queries against this website are stictly prohibited, and all activity is logged and analyzed.